Portada
METAR-TAF:

METAR-TAF

Aeroports :

Pickens, Carolina del Sud, Estats Units d'Amèrica

latitud: 34-48-36N, longitud: 082-42-10W, altitud: 309 m

Observació

L'informe es va fer fa 30 minuts, a les 08:15 UTC
Vent calma
Temperatura 9°C
Humitat 81%
Pressió 1011 hPa
Visibilitat: 16.1 km
Cel cobert a una alçada de 2900 ft

METAR: KLQK 180815Z AUTO 00000KT 10SM OVC029 09/06 A2986 RMK AO2 T00900060

Hora: 03:45 (08:45 UTC)


TAF: manca

Observacions i pronòstics meteorològics de més de 4000 aeroports (METAR i TAF).

Les estacions disponibles són els punts grocs i vermells al mapa.

Posi el ratolí al punt desitjat per veure el nom de l'estació.

Feu clic per veure les observacions i els pronòstics meteorològics.

Per canviar el mapa: feu clic els botons verds amb una creu de color negre per apropar; al botó verd amb un guió per allunyar la imatge; o en les fletxes verdes per a mapes adjacents.


METAR-TAF: